This is the latest recevied weather packets stored in our database for station/object OE-11061. If no packets are shown the sender has not sent any weather packets the latest 10 day(s).
| Time | Temp. | Humidity | Pressure | Rain* | Wind** | Luminosity | Snow |
|---|---|---|---|---|---|---|---|
| 1787973921 | 13.89° C | 92% | 1018 hPa | 0 mm | - | 0 W/m² | - |
| 1787973093 | 13.89° C | 93% | 1018.1 hPa | 0 mm | - | 0 W/m² | - |
| 1787972721 | 13.89° C | 91% | 1018.1 hPa | 0 mm | - | 0 W/m² | - |
| 1787972121 | 14.44° C | 90% | 1018.1 hPa | 0 mm | - | 0 W/m² | - |
| 1787971294 | 14.44° C | 89% | 1018 hPa | 0 mm | - | 0 W/m² | - |
| 1787970921 | 14.44° C | 90% | 1018 hPa | 0 mm | - | 0 W/m² | - |
| 1787970321 | 15° C | 88% | 1018.1 hPa | 0 mm | - | 0 W/m² | - |
| 1787969493 | 14.44° C | 88% | 1018 hPa | 0 mm | - | 0 W/m² | - |
| 1787969120 | 14.44° C | 93% | 1017.8 hPa | 0 mm | - | 0 W/m² | - |
| 1787968521 | 14.44° C | 93% | 1018 hPa | 0 mm | - | 0 W/m² | - |
| 1787967693 | 15° C | 92% | 1018.1 hPa | 0 mm | - | 0 W/m² | - |
| 1787967321 | 15° C | 94% | 1018.1 hPa | 0 mm | - | 0 W/m² | - |
| 1787966721 | 15° C | 94% | 1018.3 hPa | 0 mm | - | 0 W/m² | - |
| 1787965894 | 15° C | 94% | 1018.3 hPa | 0 mm | - | 0 W/m² | - |
| 1787964921 | 15° C | 91% | 1018.3 hPa | 0 mm | - | 0 W/m² | - |
| 1787964094 | 15° C | 89% | 1018.1 hPa | 0 mm | - | 0 W/m² | - |
| 1787963721 | 15.56° C | 89% | 1017.8 hPa | 0 mm | - | 0 W/m² | - |
| 1787963120 | 15.56° C | 88% | 1018 hPa | 0 mm | - | 0 W/m² | - |
| 1787962293 | 15.56° C | 89% | 1018.4 hPa | 0 mm | - | 0 W/m² | - |
| 1787961920 | 15.56° C | 90% | 1018.8 hPa | 0 mm | - | 0 W/m² | - |
| 1787961321 | 15.56° C | 90% | 1019.2 hPa | 0 mm | - | 0 W/m² | - |
| 1787960494 | 15.56° C | 91% | 1019.4 hPa | 0 mm | - | 0 W/m² | - |
| 1787960121 | 15.56° C | 91% | 1019.6 hPa | 0 mm | - | 0 W/m² | - |
| 1787959520 | 15.56° C | 91% | 1019.4 hPa | 0 mm | - | 0 W/m² | - |
| 1787958921 | 15.56° C | 92% | 1019.5 hPa | 0 mm | - | 0 W/m² | - |
* Rain latest hour (hover to see other rain measurements)
** Current wind speed in m/s (hover to see current wind gust speed)